User: anonymous   Login
Location: Observatoire
(46.1952°N, 5.3391°E)
Time: 00:43:15
(UTC+02:00)
Language:

CUBEBUG 2 - Orbit

View from above orbital plane
View from above orbital plane
View from above satellite
View from above satellite

Ground track
Ground track

The orbit data is extracted from the following two-line orbital elements,

1 39440U 13066AA  24109.39697957  .00009207  00000-0  11005-2 0  9994
2 39440  97.8089  54.4073 0072765 108.9464 251.9654 14.82491436560673
Epoch (UTC): 18 April 2024 09:31:39
Eccentricity: 0.0072765
inclination: 97.8089°
perigee height: 570 km
apogee height: 672 km
right ascension of ascending node: 54.4073°
argument of perigee: 108.9464°
revolutions per day: 14.82491436
mean anomaly at epoch: 251.9654°
orbit number at epoch: 56067

The dashed part of the orbit path shows where the satellite is in the earth's shadow,  

DLR